Weather in Jiayuguan

China     39°47′02″N   98°19′41″E
temp.,
°C
wind,
m/s
gust,
m/s
humid.,
%
clouds,
%
prec.,
mm/h
press.,
hPa
HPBL,
m
26 february, fri
fri2623:00+3ssw11460 0.0 100822
02:00+2s11390 0.0 100722
05:00+1ese22390 0.0 100522
08:000e11450 0.0 100822
11:00+5ene343943 0.0 1008353
14:00+3nne544621 0.0 1007563
17:00+3nne434240 0.0 1006687
20:00−3n793737 0.0 1011546
27 february, sat
sat2723:00−6nnw463588 0.0 1015548
02:00−6wnw233675 0.0 1014358
05:00−6w353169 0.0 1017429
08:00−6ene332885 0.0 1019272
11:00−6ene3221100 0.0 1020485
14:00−4ne321593 0.0 1015720
17:00−3ene2116100 0.0 1014685
20:00−3e3418100 0.0 1017575
28 february, sun
sun2823:00−4ese4522100 0.0 1019463
02:00−4ese5724100 0.0 1018664
05:00−6e5724100 0.0 1019524
08:00−7e3624100 0.0 1022405
11:00−5e4422100 0.0 1025598
14:00−4e3220100 0.0 1024764
17:00−3w2526100 0.1 10261359
20:00−3nw4630100 0.1 1031327
1 march, mon
mon123:00−4w1229100 0.0 103372
02:00−4wsw232795 0.0 103356
05:00−5w22320 0.0 103321
08:00−6ese12330 0.0 103421
11:00−1ese23240 0.0 1031290
14:00+3ese44230 0.0 1025565
17:00+4ese44250 0.0 1023670
20:000se23420 0.0 102622
2 march, tue
tue223:00−1wsw11450 0.0 102722
02:00−1wnw34370 0.0 102730
05:00−2w33440 0.0 102825
08:00−3w33470 0.0 102927
11:00+1nnw11340 0.0 1027450
14:00+4ese12290 0.0 1022913
17:00+6nnw45240 0.0 10201323
20:00+2e11380 0.0 102422